Regional Weather Roundup
Issued by NWS

Home | Current Version | Previous Version | Graphics & Text | Print | Product List | Glossary On
Versions: 1 2 3 4 5 6 7 8 9 10 11 12 13 14 15 16 17 18 19 20 21 22 23 24 25 26 27
000
ASUS45 KCYS 240810
RWRWY

WYOMING REGIONAL WEATHER ROUNDUP
NATIONAL WEATHER SERVICE CHEYENNE WY
200 AM MDT WED MAY 24 2017

NOTE:  "FAIR" INDICATES FEW OR NO CLOUDS BELOW 12,000 FEET
WITH NO SIGNIFICANT WEATHER AND/OR OBSTRUCTIONS TO VISIBILITY.

WYZ001-240900-
YELLOWSTONE NATIONAL PARK

CITY           SKY/WX    TMP DP  RH WIND       PRES   REMARKS
LK YELLOWSTONE   N/A     32  31  96 CALM      30.06F
W YELLOWSTONE  NOT AVBL

$$
WYZ002>013-054>058-071-098>099-240900-
NORTHERN WYOMING

CITY           SKY/WX    TMP DP  RH WIND       PRES   REMARKS
JACKSON        FAIR      45  36  70 CALM      30.01F
CODY           FAIR      66  36  32 SW13G21   29.82F
GREYBULL       FAIR      50  33  52 SW6       29.80F
WORLAND        FAIR      50  37  61 SE7       29.81F
SHERIDAN       FAIR      43  37  79 CALM      29.75F
BUFFALO        FAIR      51  35  54 CALM      29.81F
GILLETTE       FAIR      48  37  65 S18       29.81F
HULETT         FAIR      45  32  61 S8        29.86F
NEWCASTLE      FAIR      41  32  70 S7        29.92F

$$
WYZ014>020-022>026-101>103-240900-
CENTRAL WYOMING

CITY           SKY/WX    TMP DP  RH WIND       PRES   REMARKS
BIG PINEY      FAIR      37  32  82 NE5       30.06F WCI  33
PINEDALE       FAIR      36  32  87 NW5       30.07F WCI  32
DUBOIS         FAIR      45  32  61 NW21      30.00F
LANDER         FAIR      49  35  58 SE3       29.90F
RIVERTON       FAIR      46  36  68 NW10      29.90F
CASPER         FAIR      42  36  79 SW7       29.89F
DOUGLAS        FAIR      39  35  86 SE7       29.91F WCI  34

$$
WYZ021-027>030-104>119-240900-
SOUTHERN WYOMING

CITY           SKY/WX    TMP DP  RH WIND       PRES   REMARKS
EVANSTON       FAIR      48  31  51 SW6       30.10F
KEMMERER         N/A     46  36  66 W6        30.10F
FORT BRIDGER   FAIR      55  28  35 SW13      30.12F
ROCK SPRINGS   FAIR      52  37  56 W17       30.04F
DIXON            N/A     40  32  72 E3        30.10F
RAWLINS        FAIR      49  32  52 SW6       30.01F
SARATOGA       FAIR      39  30  70 S10       30.06F WCI  32
LARAMIE        FAIR      33  29  85 S8        30.02F WCI  26
CHEYENNE       FAIR      35  31  85 W7        30.00F WCI  29
TORRINGTON     FAIR      40  36  86 E7        29.93F
PINE BLUFFS    FAIR      34  34 100 MISG      30.01F

$$




USA.gov is the U.S. government's official web portal to all federal, state and local government web resources and services.